User: anonymous   Login
Location: Godiavel Galaoual
(15.2485°N, 12.6604°W)
Time: 13:35:16
(UTC+00:00)
Language:

S-56A Canister/Altair - Orbit

View from above orbital plane
View from above orbital plane
View from above satellite
View from above satellite

Ground track
Ground track

The orbit data is extracted from the following two-line orbital elements,

1 00082U 61004B   21172.56261872 -.00000142  00000-0 -62975-4 0  9993
2 00082  38.8560 271.6222 1175583  64.9782 306.8284 12.26032801853114
Epoch (UTC): 21 June 2021 13:30:10
Eccentricity: 0.1175583
inclination: 38.8560°
perigee height: 632 km
apogee height: 2500 km
right ascension of ascending node: 271.6222°
argument of perigee: 64.9782°
revolutions per day: 12.26032801
mean anomaly at epoch: 306.8284°
orbit number at epoch: 85311

The dashed part of the orbit path shows where the satellite is in the earth's shadow,  

DLR